This is the latest recevied weather packets stored in our database for station/object KD0RII. If no packets are shown the sender has not sent any weather packets the latest 10 day(s).
| Time | Temp. | Humidity | Pressure | Rain* | Wind** | Luminosity | Snow |
|---|---|---|---|---|---|---|---|
| 1777768596 | 15.56° C | 41% | 1020.2 hPa | 0 mm | - | 24 W/m² | - |
| 1777768293 | 16.11° C | 40% | 1020 hPa | 0 mm | - | 26 W/m² | - |
| 1777767990 | 16.11° C | 38% | 1019.8 hPa | 0 mm | - | 28 W/m² | - |
| 1777767687 | 16.67° C | 36% | 1020.2 hPa | 0 mm | - | 31 W/m² | - |
| 1777767383 | 17.22° C | 35% | 1020.4 hPa | 0 mm | - | 33 W/m² | - |
| 1777767080 | 17.22° C | 34% | 1020.4 hPa | 0 mm | - | 44 W/m² | - |
| 1777766778 | 17.78° C | 35% | 1020.4 hPa | 0 mm | - | 39 W/m² | - |
| 1777766475 | 18.33° C | 33% | 1020.3 hPa | 0 mm | - | 41 W/m² | - |
| 1777766171 | 18.33° C | 32% | 1020.3 hPa | 0 mm | - | 45 W/m² | - |
| 1777765870 | 18.89° C | 32% | 1020.3 hPa | 0 mm | - | 108 W/m² | - |
| 1777765565 | 20° C | 30% | 1020.3 hPa | 0 mm | - | 108 W/m² | - |
| 1777765263 | 20.56° C | 30% | 1020.3 hPa | 0 mm | - | 170 W/m² | - |
| 1777764963 | 20.56° C | 31% | 1020.3 hPa | 0 mm | - | 185 W/m² | - |
| 1777764661 | 20.56° C | 30% | 1020.4 hPa | 0 mm | - | 203 W/m² | - |
| 1777764356 | 20.56° C | 31% | 1020.4 hPa | 0 mm | - | 219 W/m² | - |
| 1777764054 | 20.56° C | 30% | 1020.4 hPa | 0 mm | - | 235 W/m² | - |
| 1777763751 | 21.11° C | 32% | 1020.6 hPa | 0 mm | - | 250 W/m² | - |
| 1777763449 | 21.11° C | 30% | 1020.7 hPa | 0 mm | - | 237 W/m² | - |
| 1777763147 | 20° C | 29% | 1020.4 hPa | 0 mm | - | 236 W/m² | - |
| 1777762845 | 20.56° C | 31% | 1020.6 hPa | 0 mm | - | 300 W/m² | - |
| 1777762540 | 20.56° C | 30% | 1020.7 hPa | 0 mm | - | 67 W/m² | - |
| 1777762237 | 20.56° C | 31% | 1020.9 hPa | 0 mm | - | 289 W/m² | - |
| 1777761933 | 20° C | 30% | 1020.5 hPa | 0 mm | - | 205 W/m² | - |
| 1777761631 | 20.56° C | 30% | 1020.7 hPa | 0 mm | - | 321 W/m² | - |
| 1777761328 | 21.11° C | 32% | 1020.6 hPa | 0 mm | - | 384 W/m² | - |
* Rain latest hour (hover to see other rain measurements)
** Current wind speed in m/s (hover to see current wind gust speed)